Location: Casteau
(50.5142°N, 4.0161°E)
Time: 23:06:33
(UTC+00:00)

Transit 2A - Pass Details

Date: 06 August 2021
Orbit: 594 x 964 km, 66.7° (Epoch: 26 September)

Event Time Altitude Azimuth Distance (km) Brightness Sun altitude
Rises 12:45:28 0° 323° (NW) 3,208 9.0 54.2°
Reaches altitude 10° 12:47:45 10° 325° (NW) 2,336 8.4 54.1°
Maximum altitude 12:53:10 77° 52° (NE) 864 7.1 53.7°
Drops below altitude 10° 12:59:08 10° 138° (SE) 2,566 9.0 53.3°
Sets 13:01:45 0° 140° (SE) 3,547 9.6 53.1°
